• In Russia
  • List of Countries
  • For 7 days
  • Water Temperature
  • Satellite Maps
  • Weather Map
  • Weather Widgets
  • user-avatar
    Login

    Hourly Weather Stepanakert

    Today, 22 July, Sunday

    Time Temperature Precipitation Wind Pressure Humidity
    00:00 +24°C° 0.1 mm 2 mps 689 mmHg 71%
    01:00 +23°C° 0 mm 2 mps 689 mmHg 71%
    02:00 +23°C° 0 mm 2 mps 689 mmHg 72%
    03:00 +23°C° 0 mm 2 mps 689 mmHg 72%
    04:00 +24°C° 0 mm 1 mps 689 mmHg 71%
    05:00 +24°C° 0 mm 1 mps 689 mmHg 69%
    06:00 +24°C° 0 mm 1 mps 690 mmHg 68%
    07:00 +25°C° 0 mm 2 mps 690 mmHg 64%
    08:00 +26°C° 0 mm 2 mps 690 mmHg 61%
    09:00 +26°C° 0 mm 3 mps 690 mmHg 57%
    10:00 +27°C° 0 mm 3 mps 690 mmHg 54%
    11:00 +28°C° 0 mm 3 mps 690 mmHg 50%
    12:00 +29°C° 0 mm 3 mps 689 mmHg 47%
    13:00 +30°C° 0 mm 3 mps 689 mmHg 46%
    14:00 +30°C° 0 mm 3 mps 689 mmHg 46%
    15:00 +30°C° 0 mm 3 mps 688 mmHg 45%
    16:00 +30°C° 0 mm 3 mps 688 mmHg 46%
    17:00 +30°C° 0 mm 4 mps 688 mmHg 46%
    18:00 +29°C° 0 mm 4 mps 688 mmHg 47%
    19:00 +28°C° 0 mm 3 mps 688 mmHg 53%
    20:00 +26°C° 0 mm 2 mps 688 mmHg 58%
    21:00 +24°C° 0 mm 2 mps 688 mmHg 64%
    22:00 +24°C° 0 mm 2 mps 688 mmHg 66%
    23:00 +23°C° 0 mm 2 mps 688 mmHg 67%

    Tomorrow, 23 July, Monday

    Time Temperature Precipitation Wind Pressure Humidity
    00:00 +21°C° 0 mm 2 mps 688 mmHg 69%
    01:00 +22°C° 0 mm 1 mps 688 mmHg 70%
    02:00 +22°C° 0 mm 1 mps 688 mmHg 71%
    03:00 +21°C° 0 mm 1 mps 688 mmHg 72%
    04:00 +22°C° 0.1 mm 1 mps 688 mmHg 70%
    05:00 +22°C° 0.1 mm 1 mps 688 mmHg 68%
    06:00 +23°C° 0.1 mm 1 mps 688 mmHg 67%
    07:00 +25°C° 0 mm 2 mps 688 mmHg 60%
    08:00 +26°C° 0 mm 2 mps 689 mmHg 54%
    09:00 +28°C° 0 mm 2 mps 689 mmHg 47%
    10:00 +29°C° 0 mm 3 mps 688 mmHg 45%
    11:00 +30°C° 0 mm 3 mps 688 mmHg 42%
    12:00 +31°C° 0 mm 3 mps 688 mmHg 40%
    13:00 +31°C° 0.1 mm 3 mps 687 mmHg 39%
    14:00 +33°C° 0.1 mm 3 mps 687 mmHg 38%
    15:00 +33°C° 0.1 mm 4 mps 687 mmHg 38%
    16:00 +33°C° 0.1 mm 3 mps 687 mmHg 39%
    17:00 +31°C° 0.1 mm 3 mps 687 mmHg 41%
    18:00 +31°C° 0.1 mm 3 mps 687 mmHg 43%
    19:00 +29°C° 0.1 mm 2 mps 687 mmHg 48%
    20:00 +27°C° 0.1 mm 2 mps 687 mmHg 53%
    21:00 +26°C° 0.1 mm 2 mps 687 mmHg 58%
    22:00 +25°C° 0.1 mm 2 mps 687 mmHg 60%
    23:00 +24°C° 0.1 mm 2 mps 688 mmHg 62%

    Day after tomorrow, 24 July, Tuesday

    Time Temperature Precipitation Wind Pressure Humidity
    00:00 +24°C° 0.1 mm 2 mps 688 mmHg 64%
    01:00 +23°C° 0 mm 2 mps 688 mmHg 65%
    02:00 +23°C° 0 mm 2 mps 687 mmHg 66%
    03:00 +23°C° 0 mm 2 mps 687 mmHg 67%
    04:00 +23°C° 0 mm 2 mps 688 mmHg 65%
    05:00 +24°C° 0 mm 2 mps 688 mmHg 64%
    06:00 +24°C° 0 mm 2 mps 688 mmHg 62%
    07:00 +26°C° 0 mm 2 mps 688 mmHg 56%
    08:00 +28°C° 0 mm 2 mps 688 mmHg 51%
    09:00 +29°C° 0 mm 3 mps 689 mmHg 45%
    10:00 +31°C° 0 mm 3 mps 689 mmHg 42%
    11:00 +33°C° 0 mm 3 mps 688 mmHg 38%
    12:00 +34°C° 0 mm 3 mps 688 mmHg 35%
    13:00 +35°C° 0 mm 3 mps 688 mmHg 35%
    14:00 +35°C° 0 mm 3 mps 688 mmHg 34%
    15:00 +36°C° 0 mm 3 mps 688 mmHg 33%
    16:00 +35°C° 0 mm 3 mps 688 mmHg 35%
    17:00 +34°C° 0 mm 3 mps 688 mmHg 37%
    18:00 +34°C° 0 mm 3 mps 688 mmHg 39%
    19:00 +31°C° 0 mm 2 mps 688 mmHg 44%
    20:00 +29°C° 0 mm 2 mps 689 mmHg 50%
    21:00 +27°C° 0 mm 2 mps 689 mmHg 55%
    22:00 +27°C° 0 mm 2 mps 689 mmHg 56%
    23:00 +26°C° 0 mm 2 mps 689 mmHg 57%

    25 July, Wednesday

    Time Temperature Precipitation Wind Pressure Humidity
    00:00 +26°C° 0 mm 2 mps 689 mmHg 58%
    01:00 +25°C° 0 mm 2 mps 689 mmHg 57%
    02:00 +25°C° 0 mm 2 mps 689 mmHg 57%
    03:00 +25°C° 0 mm 2 mps 689 mmHg 56%
    04:00 +25°C° 0 mm 1 mps 689 mmHg 55%
    05:00 +26°C° 0 mm 1 mps 689 mmHg 54%
    06:00 +26°C° 0 mm 1 mps 689 mmHg 53%
    07:00 +28°C° 0 mm 2 mps 689 mmHg 48%
    08:00 +30°C° 0 mm 2 mps 690 mmHg 44%
    09:00 +32°C° 0 mm 2 mps 690 mmHg 39%
    10:00 +34°C° 0 mm 3 mps 690 mmHg 36%
    11:00 +36°C° 0 mm 3 mps 689 mmHg 34%
    12:00 +37°C° 0 mm 3 mps 689 mmHg 31%
    13:00 +37°C° 0 mm 4 mps 689 mmHg 30%
    14:00 +38°C° 0 mm 4 mps 689 mmHg 29%
    15:00 +38°C° 0 mm 4 mps 688 mmHg 28%
    16:00 +38°C° 0 mm 4 mps 688 mmHg 31%
    17:00 +37°C° 0 mm 4 mps 688 mmHg 33%
    18:00 +36°C° 0 mm 4 mps 688 mmHg 35%
    19:00 +34°C° 0 mm 3 mps 688 mmHg 41%
    20:00 +30°C° 0 mm 3 mps 688 mmHg 46%
    21:00 +28°C° 0 mm 2 mps 688 mmHg 52%
    22:00 +28°C° 0 mm 2 mps 688 mmHg 54%
    23:00 +27°C° 0 mm 2 mps 688 mmHg 56%

    26 July, Thursday

    Time Temperature Precipitation Wind Pressure Humidity
    00:00 +26°C° 0 mm 2 mps 688 mmHg 59%
    01:00 +26°C° 0 mm 2 mps 688 mmHg 60%
    02:00 +26°C° 0 mm 1 mps 688 mmHg 61%
    03:00 +25°C° 0 mm 1 mps 688 mmHg 62%
    04:00 +26°C° 0 mm 1 mps 688 mmHg 61%
    05:00 +26°C° 0 mm 1 mps 689 mmHg 60%
    06:00 +27°C° 0 mm 1 mps 689 mmHg 59%
    07:00 +28°C° 0 mm 2 mps 689 mmHg 54%
    08:00 +30°C° 0 mm 2 mps 689 mmHg 49%
    09:00 +33°C° 0 mm 3 mps 690 mmHg 43%
    10:00 +34°C° 0 mm 3 mps 690 mmHg 41%
    11:00 +35°C° 0 mm 3 mps 689 mmHg 38%
    12:00 +36°C° 0 mm 4 mps 689 mmHg 36%
    13:00 +37°C° 0 mm 4 mps 689 mmHg 35%
    14:00 +37°C° 0 mm 4 mps 689 mmHg 34%
    15:00 +38°C° 0 mm 4 mps 688 mmHg 34%
    16:00 +37°C° 0 mm 5 mps 688 mmHg 35%
    17:00 +36°C° 0 mm 5 mps 688 mmHg 37%
    18:00 +35°C° 0 mm 5 mps 688 mmHg 39%
    19:00 +33°C° 0 mm 4 mps 689 mmHg 42%
    20:00 +30°C° 0 mm 3 mps 689 mmHg 45%
    21:00 +28°C° 0 mm 1 mps 689 mmHg 48%
    22:00 +27°C° 0 mm 2 mps 689 mmHg 49%
    23:00 +26°C° 0 mm 2 mps 689 mmHg 49%

    27 July, Friday

    Time Temperature Precipitation Wind Pressure Humidity
    00:00 +26°C° 0 mm 2 mps 689 mmHg 50%
    01:00 +26°C° 0 mm 2 mps 689 mmHg 49%
    02:00 +25°C° 0 mm 2 mps 689 mmHg 49%
    03:00 +25°C° 0 mm 2 mps 689 mmHg 48%
    04:00 +26°C° 0 mm 2 mps 689 mmHg 47%
    05:00 +26°C° 0 mm 2 mps 690 mmHg 46%
    06:00 +26°C° 0 mm 2 mps 690 mmHg 45%
    07:00 +28°C° 0 mm 2 mps 690 mmHg 42%
    08:00 +30°C° 0 mm 2 mps 690 mmHg 39%
    09:00 +31°C° 0 mm 3 mps 691 mmHg 36%
    10:00 +34°C° 0 mm 3 mps 690 mmHg 34%
    11:00 +35°C° 0 mm 4 mps 690 mmHg 31%
    12:00 +36°C° 0 mm 4 mps 690 mmHg 29%
    13:00 +37°C° 0 mm 4 mps 690 mmHg 28%
    14:00 +37°C° 0 mm 5 mps 689 mmHg 27%
    15:00 +37°C° 0 mm 5 mps 689 mmHg 25%
    16:00 +36°C° 0 mm 5 mps 689 mmHg 26%
    17:00 +35°C° 0 mm 5 mps 689 mmHg 27%
    18:00 +34°C° 0 mm 5 mps 689 mmHg 28%
    19:00 +32°C° 0 mm 4 mps 689 mmHg 30%
    20:00 +28°C° 0 mm 3 mps 689 mmHg 32%
    21:00 +26°C° 0 mm 2 mps 689 mmHg 34%
    22:00 +26°C° 0 mm 2 mps 689 mmHg 35%
    23:00 +25°C° 0 mm 2 mps 689 mmHg 35%
    Show more